Temperature
6 4 4 4 5 5 5 5 5 5 6 5 5 5 6 6 6 6 6 7 7 7 8 8 9 9 9 10 10 10 10 10 11 11 11 11 12 12 12 12 12 12 13 13
4 5 5 5 5 5 5 5 5 5 6 6 5 5 6 6 6 6 6 6 7 7 8 8 8 9 9 9 9 9 10 10 10 11 11 11 11 12 12 12 12 12 12 12
5 5 6 6 5 5 5 5 5 5 5 5 5 5 6 6 6 6 6 6 6 7 7 8 8 8 9 9 9 9 9 10 10 10 10 11 11 11 11 11 12 12 12 12
5 5 6 5 5 5 5 6 6 5 5 4 5 5 5 5 5 5 6 6 6 6 7 7 8 8 8 8 9 9 9 9 10 10 10 10 10 11 11 11 11 12 12 12
5 5 5 5 6 6 5 6 5 5 5 4 4 4 5 5 5 5 5 6 6 6 6 7 7 7 8 8 8 9 9 9 9 10 9 10 10 10 11 11 11 11 11 11
5 6 6 6 6 6 6 5 5 4 4 5 4 4 5 4 5 5 5 5 6 6 6 6 7 7 7 8 8 8 9 9 9 9 9 9 10 10 10 10 10 11 11 11
5 6 6 6 6 5 5 4 4 4 4 4 5 5 5 5 5 5 5 5 5 5 6 6 6 6 7 7 7 8 8 9 9 9 9 9 9 10 10 10 10 10 11 11
4 4 5 6 6 5 5 5 4 5 4 4 4 4 5 5 5 5 5 5 5 5 5 5 6 6 6 6 7 7 7 8 8 8 9 9 9 9 9 10 10 10 10 10
4 4 5 6 6 5 5 4 4 3 3 3 4 4 5 5 5 5 5 5 5 5 5 5 5 5 5 6 6 6 7 7 8 8 8 8 9 9 9 9 10 10 10 10
4 4 5 5 6 5 5 4 3 3 4 5 5 4 5 5 5 4 4 4 4 4 5 5 5 5 5 5 6 6 7 7 7 7 8 8 8 8 9 9 9 9 9 9
4 4 4 4 5 5 4 4 3 3 3 4 4 5 5 4 4 4 4 4 4 4 4 4 4 4 5 5 5 6 6 7 7 7 7 8 8 8 8 8 8 8 8 9
3 2 3 4 5 5 5 4 3 4 3 2 3 4 5 4 4 4 4 4 4 4 4 4 4 4 4 5 5 5 6 6 6 6 7 7 7 7 7 8 8 8 8 8
4 3 3 4 4 4 4 4 3 3 2 2 3 4 4 3 3 4 4 4 4 3 3 3 4 4 4 4 5 5 5 5 6 6 6 6 7 7 7 7 7 7 7 8
4 3 3 4 4 4 4 4 3 3 2 2 3 4 4 3 3 3 3 3 3 3 3 3 3 3 3 4 4 4 4 5 5 5 6 6 6 6 6 6 6 7 7 7
3 3 3 3 3 3 4 4 3 3 3 3 3 3 4 3 3 3 3 3 3 3 3 3 3 3 3 3 4 4 4 4 4 5 5 5 5 5 5 6 6 6 6 6
2 3 3 3 4 3 3 4 3 3 3 3 3 3 3 3 3 3 3 3 3 3 3 3 3 3 3 3 3 3 4 4 4 4 4 4 5 5 5 5 5 5 6 6
1 2 3 3 3 4 4 4 4 3 3 3 3 4 3 3 2 3 3 3 3 3 2 2 2 2 2 2 2 3 3 3 3 3 3 4 4 4 4 4 5 5 5 5
1 2 2 2 3 5 6 4 4 4 4 3 3 3 3 3 3 4 4 3 3 3 2 2 2 2 2 2 2 2 3 3 3 3 3 3 3 3 4 4 4 4 4 4
1 2 2 2 2 3 5 4 4 4 4 3 3 3 3 3 3 3 4 3 3 3 2 2 2 2 2 2 2 2 2 2 2 2 2 3 3 3 3 3 3 3 3 4
1 1 1 2 3 5 6 5 4 4 5 4 3 2 2 2 2 2 4 3 3 2 2 2 2 2 2 2 2 2 2 2 2 2 2 2 2 2 2 2 2 3 3 3
2 1 1 1 2 3 4 3 4 5 6 5 4 3 3 2 3 4 3 3 3 2 2 2 2 1 1 1 2 2 2 1 1 1 1 2 2 2 2 2 2 2 2 2
1 1 1 1 2 4 4 3 3 4 5 5 4 4 4 4 4 3 3 3 2 2 2 2 1 1 1 1 1 1 1 1 1 1 1 1 1 1 2 2 2 2 2 2
-0 1 1 1 3 4 4 4 5 5 5 5 5 5 5 4 4 3 3 3 2 2 2 1 1 1 1 1 0 1 0 1 1 1 1 1 1 1 1 1 1 1 1 1
-1 -0 -0 0 1 2 4 5 5 5 5 6 5 5 5 4 4 3 3 2 2 2 2 1 1 1 0 0 0 0 -0 0 0 0 0 0 1 1 1 1 1 1 1 1
0 -1 -1 -0 0 2 5 6 6 6 5 5 5 5 4 4 4 3 3 2 2 2 1 1 1 0 0 0 -0 -0 -0 -0 -0 -0 -0 -0 -0 -0 -0 -0 -0 -0 -0 -0
-1 -0 0 2 3 2 5 6 6 5 5 5 5 4 4 4 3 3 3 2 2 2 1 1 1 0 0 -0 -0 -1 -1 -1 -1 -1 -1 -1 -1 -1 -1 -1 -1 -1 -1 -1
Wind_Speed
2 2 3 5 5 3 2 3 6 6 4 3 6 9 11 9 6 7 7 6 6 6 6 5 4 3 2 1 3 3 3 5 5 4 5 5 6 5 5 6 8 10 11 12
3 3 5 3 2 2 2 4 6 6 3 3 6 9 8 6 5 5 6 7 7 7 7 5 3 2 2 2 3 3 4 5 5 4 4 4 5 5 6 6 7 10 11 12
3 3 2 2 1 1 3 4 4 5 6 3 5 7 5 5 4 5 5 6 6 7 7 6 4 3 2 2 2 3 4 4 4 4 3 3 3 3 3 5 6 8 10 11
2 4 1 1 2 2 4 4 5 4 4 4 4 5 6 6 7 7 8 8 8 8 7 6 4 4 3 3 3 2 2 3 4 4 4 6 5 4 5 6 6 7 9 10
3 2 1 2 3 3 4 3 3 3 2 3 2 1 7 5 7 9 9 9 9 8 7 7 5 5 5 4 3 3 2 3 3 4 4 6 5 4 3 5 6 7 7 8
3 2 2 3 2 2 2 2 1 1 1 2 3 2 5 4 6 9 9 10 9 9 8 8 7 6 6 6 5 3 2 3 2 3 4 5 6 5 5 6 6 6 6 6
3 2 2 0 2 3 3 3 4 5 3 4 2 2 5 5 6 7 8 9 8 8 8 8 9 8 7 7 6 5 4 4 3 2 3 4 5 5 6 6 6 5 5 5
1 3 2 1 1 1 0 3 3 1 3 4 3 3 6 5 5 6 6 6 7 8 8 8 8 8 7 7 7 6 5 5 4 2 3 3 4 4 5 6 6 6 6 6
2 3 2 1 0 2 2 1 2 3 0 2 4 6 6 3 6 7 8 8 9 9 9 9 9 8 7 7 7 6 5 5 5 3 1 0 1 2 3 3 4 4 4 5
3 1 3 2 3 3 2 3 3 2 1 3 5 4 5 6 6 7 8 8 9 9 9 9 8 8 8 8 7 6 5 5 4 4 2 1 1 1 1 2 3 4 5 5
2 1 3 2 1 1 2 2 2 2 2 2 3 5 3 4 3 4 6 6 7 8 9 9 8 8 8 8 8 7 6 6 6 5 4 3 2 2 1 1 2 3 4 5
2 3 1 3 2 1 2 3 3 2 2 2 2 5 4 2 2 2 4 5 6 6 7 8 8 8 8 8 8 8 8 7 6 5 5 4 3 2 2 1 2 2 3 4
2 3 2 4 3 2 0 2 3 3 3 3 2 5 2 3 3 3 3 5 5 7 7 8 8 8 8 9 9 9 9 8 7 6 6 5 4 3 3 2 2 2 2 3
3 2 3 4 4 2 2 2 3 4 3 3 5 6 6 4 4 4 4 4 4 6 7 7 7 8 8 9 9 9 8 8 7 7 6 6 5 4 3 3 3 2 2 2
3 1 2 4 4 3 4 5 5 6 6 6 6 6 8 5 4 3 2 3 4 6 7 7 7 8 8 9 9 9 9 8 8 7 7 6 6 5 5 4 3 3 2 2
2 1 1 3 2 3 5 7 6 6 5 6 5 8 6 3 1 2 2 2 3 4 5 6 7 7 8 9 9 9 9 8 8 7 7 7 7 6 6 5 5 4 3 3
1 1 1 3 5 5 6 7 8 5 5 6 7 6 2 2 2 3 3 3 3 3 4 5 6 6 6 7 7 7 7 7 7 7 7 7 7 7 6 5 5 5 5 4
3 2 1 2 5 4 5 2 5 5 6 7 6 4 3 4 3 3 3 3 3 3 3 4 5 5 5 6 6 6 7 7 7 8 8 7 7 7 6 6 6 5 5 4
3 4 1 0 3 8 6 2 4 4 5 6 7 5 3 0 2 3 3 2 2 2 2 3 3 4 5 6 6 6 7 8 8 8 8 7 6 6 6 6 6 5 5 5
3 3 3 2 2 5 5 2 2 2 5 4 6 6 3 3 1 4 2 1 1 1 2 2 3 4 5 6 6 6 7 8 8 9 9 7 6 6 6 6 5 5 4 4
2 2 3 4 5 8 6 2 3 2 5 2 5 6 6 6 5 3 1 1 1 1 1 2 2 3 4 5 5 6 6 7 8 8 8 8 7 6 5 5 5 5 4 4
7 6 6 5 5 8 3 5 5 7 3 2 4 5 6 4 2 1 2 2 1 1 1 1 2 3 4 5 5 5 6 7 7 7 7 8 7 6 6 6 5 5 4 4
7 8 6 9 9 4 4 6 5 3 3 3 4 4 4 3 3 3 2 2 2 1 1 1 1 3 4 4 4 5 6 7 7 7 7 7 7 7 6 5 5 5 4 4
5 4 4 6 9 8 8 8 6 5 5 4 4 4 5 5 5 4 3 3 2 1 1 1 1 2 4 4 4 4 6 6 6 7 7 7 7 7 7 5 5 4 4 4
6 6 4 7 8 8 7 7 7 5 4 4 3 4 5 5 5 4 4 3 3 2 1 1 1 2 3 4 5 5 5 5 6 6 6 6 6 6 6 5 4 5 4 4
7 8 8 9 8 6 7 5 4 5 6 6 4 4 4 5 5 4 4 3 3 3 2 1 1 2 3 3 4 5 5 4 5 5 6 5 5 5 5 5 6 7 6 8
Wind_Direction
82 88 225 231 217 225 259 270 288 284 289 309 291 296 305 315 325 322 324 326 320 312 302 303 278 267 262 242 233 226 237 237 224 204 187 190 198 195 198 198 193 193 191 188
65 257 249 232 207 223 253 281 291 295 296 281 295 296 302 309 309 313 325 333 330 321 322 313 306 306 274 253 245 242 245 244 232 213 194 190 187 190 198 198 190 195 193 191
186 257 245 185 215 235 258 238 261 283 316 316 316 315 326 329 338 345 343 332 334 334 327 319 315 301 299 291 262 245 248 251 239 217 193 180 172 167 193 200 197 196 194 193
252 283 256 208 235 201 267 243 247 285 333 323 6 316 315 329 343 348 346 344 342 338 337 338 337 336 332 312 297 265 260 260 248 219 200 193 195 197 211 201 200 199 197 197
253 279 234 234 246 205 239 274 257 267 270 307 336 263 302 337 340 338 340 339 339 338 344 354 356 353 348 340 337 316 291 275 250 217 208 200 200 204 205 196 200 201 200 200
256 266 221 233 269 207 248 346 357 26 54 318 286 229 303 320 315 324 331 337 342 343 351 0 -0 4 2 1 356 340 324 300 274 226 216 209 203 201 195 193 202 202 200 200
330 314 308 11 10 19 52 58 20 4 5 276 292 242 270 297 311 313 324 336 343 349 2 4 2 2 2 2 359 357 352 329 311 264 237 226 212 204 201 200 204 205 206 210
42 301 296 340 170 202 61 120 139 214 268 297 323 272 275 302 328 337 340 347 356 3 5 2 360 359 359 1 360 0 355 344 334 301 259 224 210 210 207 206 206 211 214 214
168 268 312 304 263 130 103 109 158 139 300 299 297 298 306 335 358 2 0 5 2 359 359 360 360 1 1 2 359 355 353 346 348 351 345 311 226 216 218 219 213 215 220 218
158 250 311 320 57 36 114 139 94 99 58 308 310 303 304 320 331 344 351 354 353 354 357 1 0 359 359 355 350 352 359 357 359 5 359 360 350 298 243 232 233 225 225 218
132 140 324 13 111 182 82 92 105 115 153 172 297 289 271 279 302 324 335 345 351 354 358 359 355 353 355 358 358 358 2 9 6 6 6 3 351 333 314 265 247 239 228 220
124 117 289 275 261 204 171 169 152 151 239 184 210 274 313 283 299 325 335 346 352 355 354 354 352 355 359 359 1 5 6 5 1 358 4 358 350 352 340 307 286 266 245 231
128 103 20 351 347 9 90 187 164 138 130 169 201 270 329 4 356 347 341 341 347 355 357 356 356 1 359 359 2 3 5 1 360 3 6 1 4 10 348 328 313 295 275 265
105 123 177 211 243 230 252 223 178 149 172 215 231 258 295 311 319 326 333 334 343 351 354 355 356 359 358 358 359 359 1 2 3 7 8 4 356 352 343 336 336 326 301 286
91 170 243 259 264 239 237 231 203 198 202 209 241 247 270 275 268 280 305 330 346 349 351 352 354 355 356 357 357 359 0 2 5 8 6 356 352 354 356 355 353 348 337 321
61 149 319 308 307 272 265 247 222 220 218 231 259 271 264 265 252 275 291 310 324 331 337 342 348 352 352 351 350 352 356 356 360 3 358 354 358 359 359 355 352 355 351 343
81 103 8 297 316 328 280 239 203 208 209 197 225 243 257 275 261 260 264 269 285 308 325 334 339 340 339 339 340 345 344 350 359 358 355 355 356 356 352 353 360 359 353 352
143 125 133 315 356 274 255 225 186 205 236 218 232 247 235 239 258 256 237 235 270 300 319 327 332 335 336 337 340 343 349 355 357 356 352 352 352 350 347 356 358 352 349 347
160 145 125 56 298 284 289 222 175 192 268 220 216 238 243 250 338 291 242 228 247 267 299 313 321 330 340 342 342 353 357 357 359 356 351 345 345 346 351 354 347 342 343 343
82 105 126 147 258 258 265 210 169 122 286 232 194 209 201 126 304 272 233 216 248 306 329 330 337 352 353 343 352 6 0 360 355 349 345 342 343 345 346 340 334 335 338 334
140 131 172 195 240 267 256 211 127 167 261 250 190 195 181 196 222 246 178 201 226 280 321 341 352 352 342 343 359 4 359 352 340 340 345 347 346 344 341 339 336 333 334 337
186 181 196 178 214 259 213 143 185 225 271 218 200 196 197 216 222 194 194 200 222 293 321 347 354 342 343 352 1 356 346 336 339 344 348 348 346 345 347 348 344 340 339 342
205 197 194 201 220 250 203 214 243 236 244 233 211 214 193 205 227 230 223 215 221 232 278 327 340 337 345 351 356 346 333 338 343 347 347 345 347 347 349 351 347 346 346 342
251 200 210 258 262 256 246 248 252 235 237 243 227 212 192 206 217 224 224 226 230 244 268 309 344 337 337 342 344 337 334 342 345 344 343 346 349 349 350 350 348 345 342 337
225 182 216 257 272 289 271 239 240 243 240 242 237 219 206 200 213 215 221 226 230 244 257 265 287 311 324 335 336 336 339 346 346 343 342 344 346 344 342 343 338 331 321 325
200 192 200 238 236 223 260 261 230 228 238 232 226 233 223 208 213 213 217 219 220 224 231 251 284 298 305 317 320 326 332 339 341 341 343 341 340 337 337 336 335 341 341 341
Height
1488 1492 1493 1492 1491 1491 1491 1492 1491 1487 1483 1483 1479 1474 1468 1464 1461 1458 1455 1453 1451 1450 1449 1448 1448 1447 1447 1447 1449 1451 1453 1454 1456 1458 1460 1464 1467 1470 1474 1477 1481 1485 1488 1492
1492 1492 1489 1488 1489 1490 1491 1491 1490 1485 1482 1481 1478 1473 1467 1463 1461 1458 1455 1452 1450 1448 1446 1445 1444 1443 1444 1445 1446 1448 1449 1450 1452 1452 1456 1460 1463 1466 1469 1473 1476 1480 1484 1487
1490 1489 1486 1487 1488 1489 1489 1490 1488 1486 1482 1479 1478 1471 1466 1462 1460 1458 1456 1453 1450 1447 1445 1443 1441 1441 1441 1442 1443 1444 1445 1446 1447 1449 1452 1455 1458 1461 1464 1467 1470 1475 1478 1482
1489 1487 1486 1487 1487 1488 1488 1484 1484 1484 1486 1485 1484 1482 1469 1464 1461 1458 1455 1452 1449 1446 1443 1441 1440 1440 1439 1439 1439 1440 1441 1442 1443 1445 1447 1450 1452 1455 1458 1462 1465 1469 1473 1477
1488 1486 1486 1486 1485 1485 1485 1482 1483 1484 1485 1486 1485 1484 1474 1467 1463 1459 1456 1452 1449 1446 1443 1440 1439 1439 1438 1437 1437 1437 1439 1439 1440 1441 1444 1446 1448 1451 1454 1458 1461 1464 1467 1471
1487 1485 1485 1484 1483 1483 1483 1483 1484 1486 1487 1488 1485 1485 1477 1471 1466 1461 1456 1452 1449 1446 1443 1441 1439 1438 1437 1436 1436 1436 1436 1436 1437 1438 1440 1442 1444 1447 1449 1452 1456 1458 1462 1465
1487 1485 1483 1483 1483 1484 1485 1489 1494 1493 1496 1489 1483 1482 1476 1468 1465 1462 1458 1453 1450 1447 1444 1441 1439 1438 1437 1435 1435 1434 1434 1434 1435 1435 1436 1438 1440 1443 1445 1448 1451 1453 1456 1459
1491 1491 1485 1483 1484 1485 1486 1488 1495 1495 1495 1491 1484 1481 1473 1467 1464 1461 1458 1455 1451 1448 1445 1443 1440 1439 1437 1435 1434 1433 1433 1432 1432 1433 1433 1435 1437 1439 1441 1444 1446 1449 1451 1454
1492 1491 1485 1483 1483 1484 1486 1490 1491 1497 1499 1496 1487 1481 1471 1466 1464 1462 1459 1456 1453 1450 1447 1444 1442 1439 1437 1435 1434 1433 1432 1431 1430 1430 1431 1431 1433 1435 1437 1439 1442 1444 1447 1449
1489 1491 1487 1485 1484 1485 1486 1489 1494 1496 1494 1490 1486 1483 1477 1468 1465 1463 1460 1457 1454 1451 1448 1445 1443 1440 1438 1436 1434 1433 1431 1430 1429 1428 1429 1429 1430 1432 1433 1435 1437 1439 1441 1444
1488 1493 1490 1487 1486 1487 1488 1490 1492 1497 1496 1496 1491 1481 1472 1469 1467 1465 1462 1459 1456 1453 1450 1448 1445 1442 1439 1437 1434 1432 1430 1430 1429 1428 1427 1427 1428 1429 1430 1431 1433 1435 1437 1438
1489 1494 1495 1490 1486 1485 1486 1488 1491 1494 1496 1499 1497 1486 1470 1468 1467 1466 1464 1461 1458 1456 1453 1449 1446 1443 1440 1437 1435 1432 1431 1429 1428 1427 1427 1426 1426 1427 1428 1429 1430 1431 1432 1434
1489 1493 1496 1490 1491 1489 1487 1487 1488 1492 1496 1500 1495 1483 1470 1468 1467 1466 1464 1462 1460 1457 1454 1450 1447 1444 1441 1438 1436 1433 1431 1429 1428 1427 1426 1425 1425 1425 1425 1426 1426 1427 1428 1429
1487 1492 1496 1492 1489 1488 1487 1486 1487 1490 1495 1495 1489 1479 1471 1469 1468 1466 1465 1463 1460 1458 1455 1452 1449 1446 1443 1440 1437 1434 1432 1430 1428 1427 1426 1425 1423 1423 1423 1424 1423 1424 1425 1426
1488 1493 1492 1490 1487 1486 1484 1483 1485 1486 1485 1487 1480 1478 1470 1468 1467 1466 1465 1463 1461 1458 1456 1453 1450 1447 1444 1441 1438 1435 1432 1430 1428 1426 1425 1424 1423 1422 1422 1421 1421 1422 1422 1423
1490 1492 1491 1489 1485 1485 1482 1479 1480 1480 1480 1480 1478 1474 1467 1466 1466 1465 1464 1463 1461 1459 1457 1454 1452 1449 1445 1442 1439 1436 1434 1431 1429 1427 1425 1424 1422 1421 1420 1420 1420 1420 1420 1420
1492 1493 1493 1491 1488 1482 1479 1472 1474 1474 1473 1474 1473 1469 1465 1465 1464 1463 1463 1462 1461 1459 1458 1455 1452 1450 1446 1443 1440 1437 1435 1432 1429 1427 1425 1423 1422 1420 1419 1419 1418 1418 1418 1418
1492 1494 1496 1495 1490 1481 1471 1467 1467 1469 1467 1467 1466 1464 1463 1463 1463 1462 1461 1461 1460 1458 1457 1455 1452 1450 1447 1444 1441 1438 1435 1432 1429 1427 1424 1422 1421 1420 1419 1418 1417 1416 1416 1415
1489 1492 1495 1497 1494 1483 1468 1465 1466 1468 1465 1461 1462 1462 1462 1462 1462 1460 1460 1459 1459 1458 1456 1454 1452 1450 1447 1444 1441 1438 1435 1432 1429 1426 1424 1422 1420 1419 1418 1417 1416 1415 1415 1414
1491 1492 1496 1497 1491 1479 1464 1463 1462 1466 1464 1457 1457 1459 1460 1461 1464 1460 1458 1458 1457 1456 1455 1453 1451 1449 1446 1444 1441 1438 1435 1432 1429 1427 1424 1422 1421 1420 1418 1417 1415 1414 1413 1412
1492 1494 1496 1495 1493 1479 1464 1462 1464 1469 1461 1454 1454 1455 1457 1458 1458 1457 1456 1456 1456 1455 1454 1452 1450 1448 1446 1444 1441 1438 1435 1433 1430 1428 1425 1423 1421 1420 1418 1416 1415 1413 1412 1410
1488 1491 1491 1492 1491 1476 1461 1461 1463 1459 1454 1452 1452 1453 1454 1454 1454 1454 1454 1453 1453 1452 1451 1450 1448 1446 1445 1442 1440 1437 1435 1433 1431 1428 1425 1423 1421 1419 1417 1415 1413 1412 1410 1408
1483 1480 1479 1478 1470 1460 1457 1456 1455 1454 1452 1451 1451 1451 1452 1452 1452 1452 1452 1451 1451 1450 1449 1448 1446 1445 1443 1441 1439 1437 1435 1432 1430 1427 1425 1422 1420 1418 1416 1414 1412 1410 1408 1406
1476 1473 1474 1471 1459 1454 1453 1452 1452 1451 1451 1450 1450 1450 1449 1449 1450 1450 1449 1449 1448 1448 1447 1446 1444 1443 1441 1440 1438 1436 1434 1432 1429 1426 1424 1421 1419 1416 1414 1412 1410 1408 1406 1404
1468 1469 1470 1465 1455 1451 1447 1447 1447 1448 1448 1447 1447 1447 1447 1447 1447 1447 1447 1446 1446 1445 1444 1443 1442 1441 1439 1438 1436 1434 1432 1430 1427 1425 1422 1420 1418 1415 1413 1411 1409 1407 1405 1403
1459 1460 1461 1455 1448 1448 1444 1444 1444 1444 1444 1444 1443 1443 1443 1444 1443 1444 1444 1444 1443 1443 1442 1441 1440 1439 1438 1436 1434 1433 1430 1428 1426 1423 1421 1418 1416 1414 1411 1409 1407 1405 1404 1402